| time (UTC) | temp F | wind direction | speed MPH | gust MPH | rain 1hr in | rain 24hr in | rain mn in | humidity % | barometer mb |
| 20260906011324 | 87 | 308 | 0.0 | 0.0 | 0.00 | 0.00 | 0.00 | 35 | |
| 20260906010829 | 87 | 308 | 0.0 | 1.0 | 0.00 | 0.00 | 0.00 | 33 | |
| 20260906010333 | 88 | 334 | 0.0 | 0.0 | 0.00 | 0.00 | 0.00 | 29 | |
| 20260906004536 | 89 | 335 | 0.0 | 0.0 | 0.00 | 0.00 | 0.00 | 28 | |
| 20260906004027 | 89 | 335 | 0.0 | 6.0 | 0.00 | 0.00 | 0.00 | 28 | |
| 20260906003526 | 90 | 337 | 0.0 | 6.0 | 0.00 | 0.00 | 0.00 | 31 | |
| 20260906003019 | 90 | 5 | 0.0 | 6.0 | 0.00 | 0.00 | 0.00 | 29 | |
| 20260906002508 | 91 | 34 | 0.0 | 5.0 | 0.00 | 0.00 | 0.00 | 28 | |
| 20260906002004 | 92 | 325 | 1.0 | 5.0 | 0.00 | 0.00 | 0.00 | 30 | |
| 20260906001455 | 92 | 309 | 0.0 | 5.0 | 0.00 | 0.00 | 0.00 | 29 | |
| 20260906001002 | 92 | 315 | 0.0 | 3.0 | 0.00 | 0.00 | 0.00 | 27 | |
| 20260906000508 | 93 | 169 | 0.0 | 0.0 | 0.00 | 0.00 | 0.00 | 25 | |
| 20260905235958 | 93 | 169 | 0.0 | 2.0 | 0.00 | 0.00 | 0.00 | 25 | |
| 20260905234818 | 93 | 155 | 0.0 | 2.0 | 0.00 | 0.00 | 0.00 | 25 | |
| 20260905234319 | 93 | 155 | 0.0 | 2.0 | 0.00 | 0.00 | 0.00 | 24 | |
| 20260905233824 | 93 | 150 | 0.0 | 1.0 | 0.00 | 0.00 | 0.00 | 24 | |
| 20260905233312 | 93 | 83 | 0.0 | 1.0 | 0.00 | 0.00 | 0.00 | 25 | |
| 20260905232753 | 93 | 137 | 0.0 | 3.0 | 0.00 | 0.00 | 0.00 | 24 | |
| 20260905232252 | 93 | 156 | 0.0 | 1.0 | 0.00 | 0.00 | 0.00 | 23 | |
| 20260905231746 | 93 | 90 | 0.0 | 0.0 | 0.00 | 0.00 | 0.00 | 24 | |
| 20260905231243 | 93 | 159 | 0.0 | 4.0 | 0.00 | 0.00 | 0.00 | 23 | |
| 20260905230743 | 93 | 94 | 0.0 | 4.0 | 0.00 | 0.00 | 0.00 | 23 | |
| 20260905225624 | 93 | 142 | 0.0 | 3.0 | 0.00 | 0.00 | 0.00 | 23 | |
| 20260905225128 | 93 | 59 | 0.0 | 2.0 | 0.00 | 0.00 | 0.00 | 23 | |
| 20260905223948 | 94 | 49 | 0.0 | 2.0 | 0.00 | 0.00 | 0.00 | 23 | |
| 20260905223445 | 94 | 127 | 0.0 | 4.0 | 0.00 | 0.00 | 0.00 | 23 | |
| 20260905222950 | 94 | 65 | 0.0 | 4.0 | 0.00 | 0.00 | 0.00 | 23 | |
| 20260905222455 | 93 | 110 | 0.0 | 6.0 | 0.00 | 0.00 | 0.00 | 25 | |
| 20260905221347 | 93 | 329 | 1.0 | 6.0 | 0.00 | 0.00 | 0.00 | 24 | |
| 20260905220852 | 94 | 53 | 1.0 | 6.0 | 0.00 | 0.00 | 0.00 | 23 | |
| 20260905220356 | 93 | 183 | 1.0 | 4.0 | 0.00 | 0.00 | 0.00 | 23 | |
| 20260905215852 | 94 | 63 | 0.0 | 4.0 | 0.00 | 0.00 | 0.00 | 23 | |
| 20260905215350 | 94 | 45 | 0.0 | 4.0 | 0.00 | 0.00 | 0.00 | 23 | |
| 20260905214859 | 94 | 127 | 0.0 | 4.0 | 0.00 | 0.00 | 0.00 | 23 | |
| 20260905214347 | 94 | 239 | 0.0 | 4.0 | 0.00 | 0.00 | 0.00 | 24 | |
| 20260905213832 | 94 | 142 | 0.0 | 4.0 | 0.00 | 0.00 | 0.00 | 25 | |
| 20260905213341 | 93 | 74 | 0.0 | 4.0 | 0.00 | 0.00 | 0.00 | 27 | |
| 20260905212833 | 93 | 199 | 0.0 | 4.0 | 0.00 | 0.00 | 0.00 | 26 | |
| 20260905212328 | 93 | 0 | 0.0 | 2.0 | 0.00 | 0.00 | 0.00 | 26 | |
| 20260905211834 | 92 | 38 | 0.0 | 4.0 | 0.00 | 0.00 | 0.00 | 27 | |
| 20260905211331 | 92 | 338 | 0.0 | 4.0 | 0.00 | 0.00 | 0.00 | 26 | |
| 20260905210815 | 92 | 339 | 0.0 | 4.0 | 0.00 | 0.00 | 0.00 | 27 | |
| 20260905210305 | 92 | 16 | 0.0 | 4.0 | 0.00 | 0.00 | 0.00 | 26 | |
| 20260905205751 | 92 | 94 | 1.0 | 5.0 | 0.00 | 0.00 | 0.00 | 25 | |
| 20260905205246 | 92 | 286 | 1.0 | 5.0 | 0.00 | 0.00 | 0.00 | 26 | |
| 20260905204727 | 92 | 295 | 1.0 | 6.0 | 0.00 | 0.00 | 0.00 | 26 | |
| 20260905203606 | 92 | 315 | 1.0 | 6.0 | 0.00 | 0.00 | 0.00 | 29 | |
| 20260905203109 | 92 | 281 | 1.0 | 6.0 | 0.00 | 0.00 | 0.00 | 29 | |
| 20260905202552 | 92 | 284 | 1.0 | 5.0 | 0.00 | 0.00 | 0.00 | 30 | |
| 20260905202043 | 92 | 247 | 0.0 | 4.0 | 0.00 | 0.00 | 0.00 | 30 | |
| 20260905201541 | 92 | 52 | 1.0 | 4.0 | 0.00 | 0.00 | 0.00 | 31 | |
| 20260905201041 | 92 | 61 | 1.0 | 4.0 | 0.00 | 0.00 | 0.00 | 31 | |
| 20260905200536 | 92 | 302 | 1.0 | 4.0 | 0.00 | 0.00 | 0.00 | 31 | |
| 20260905200041 | 92 | 292 | 1.0 | 4.0 | 0.00 | 0.00 | 0.00 | 34 | |
| 20260905195523 | 93 | 15 | 0.0 | 5.0 | 0.00 | 0.00 | 0.00 | 37 | |
| 20260905195013 | 92 | 20 | 0.0 | 5.0 | 0.00 | 0.00 | 0.00 | 38 | |
| 20260905194510 | 92 | 155 | 1.0 | 5.0 | 0.00 | 0.00 | 0.00 | 37 | |
| 20260905194014 | 92 | 134 | 1.0 | 5.0 | 0.00 | 0.00 | 0.00 | 38 | |
| 20260905193459 | 92 | 338 | 1.0 | 5.0 | 0.00 | 0.00 | 0.00 | 37 | |
| 20260905192956 | 93 | 296 | 1.0 | 5.0 | 0.00 | 0.00 | 0.00 | 37 | |
| 20260905192449 | 93 | 224 | 1.0 | 3.0 | 0.00 | 0.00 | 0.00 | 35 | |
| 20260905191952 | 93 | 249 | 0.0 | 3.0 | 0.00 | 0.00 | 0.00 | 35 | |
| 20260905191441 | 93 | 286 | 0.0 | 3.0 | 0.00 | 0.00 | 0.00 | 34 | |
| 20260905190927 | 93 | 0 | 0.0 | 3.0 | 0.00 | 0.00 | 0.00 | 34 | |
| 20260905190411 | 92 | 290 | 0.0 | 3.0 | 0.00 | 0.00 | 0.00 | 35 | |
| 20260905185854 | 92 | 290 | 0.0 | 5.0 | 0.00 | 0.00 | 0.00 | 35 | |
| 20260905185342 | 91 | 290 | 0.0 | 5.0 | 0.00 | 0.00 | 0.00 | 35 | |
| 20260905184828 | 90 | 289 | 0.0 | 5.0 | 0.00 | 0.00 | 0.00 | 36 | |
| 20260905184328 | 90 | 277 | 1.0 | 5.0 | 0.00 | 0.00 | 0.00 | 36 | |
| 20260905183828 | 90 | 281 | 1.0 | 5.0 | 0.00 | 0.00 | 0.00 | 36 | |
| 20260905183333 | 90 | 319 | 0.0 | 4.0 | 0.00 | 0.00 | 0.00 | 37 | |
| 20260905182836 | 89 | 296 | 0.0 | 3.0 | 0.00 | 0.00 | 0.00 | 37 | |
| 20260905182336 | 89 | 296 | 1.0 | 3.0 | 0.00 | 0.00 | 0.00 | 38 | |
| 20260905181825 | 88 | 298 | 0.0 | 3.0 | 0.00 | 0.00 | 0.00 | 40 | |
| 20260905180700 | 87 | 213 | 0.0 | 1.0 | 0.00 | 0.00 | 0.00 | 42 | |
| 20260905175542 | 86 | 267 | 0.0 | 2.0 | 0.00 | 0.00 | 0.00 | 44 | |
| 20260905175033 | 85 | 269 | 0.0 | 2.0 | 0.00 | 0.00 | 0.00 | 45 | |
| 20260905174513 | 85 | 252 | 0.0 | 2.0 | 0.00 | 0.00 | 0.00 | 47 | |
| 20260905174016 | 84 | 144 | 0.0 | 0.0 | 0.00 | 0.00 | 0.00 | 49 | |
| 20260905173523 | 83 | 144 | 0.0 | 0.0 | 0.00 | 0.00 | 0.00 | 51 | |
| 20260905173018 | 82 | 144 | 0.0 | 3.0 | 0.00 | 0.00 | 0.00 | 51 | |
| 20260905172521 | 81 | 249 | 0.0 | 3.0 | 0.00 | 0.00 | 0.00 | 53 | |
| 20260905172018 | 80 | 109 | 0.0 | 0.0 | 0.00 | 0.00 | 0.00 | 54 | |
| 20260905171504 | 79 | 108 | 0.0 | 0.0 | 0.00 | 0.00 | 0.00 | 57 | |
| 20260905170956 | 78 | 151 | 0.0 | 1.0 | 0.00 | 0.00 | 0.00 | 59 | |
| 20260905170436 | 77 | 159 | 0.0 | 0.0 | 0.00 | 0.00 | 0.00 | 61 | |
| 20260905165924 | 75 | 311 | 0.0 | 0.0 | 0.00 | 0.00 | 0.00 | 65 | |
| 20260905165409 | 74 | 311 | 0.0 | 0.0 | 0.00 | 0.00 | 0.00 | 66 | |
| 20260905164919 | 72 | 311 | 0.0 | 2.0 | 0.00 | 0.00 | 0.00 | 69 | |
| 20260905164417 | 71 | 311 | 0.0 | 2.0 | 0.00 | 0.00 | 0.00 | 72 | |
| 20260905163916 | 69 | 311 | 0.0 | 0.0 | 0.00 | 0.00 | 0.00 | 77 | |
| 20260905163423 | 68 | 311 | 0.0 | 0.0 | 0.00 | 0.00 | 0.00 | 82 | |
| 20260905162913 | 67 | 311 | 0.0 | 0.0 | 0.00 | 0.00 | 0.00 | 87 | |
| 20260905162353 | 65 | 311 | 0.0 | 0.0 | 0.00 | 0.00 | 0.00 | 88 | |
| 20260905161853 | 64 | 311 | 0.0 | 1.0 | 0.00 | 0.00 | 0.00 | 91 | |
| 20260905161347 | 63 | 311 | 0.0 | 0.0 | 0.00 | 0.00 | 0.00 | 94 | |
| 20260905160855 | 63 | 311 | 0.0 | 0.0 | 0.00 | 0.00 | 0.00 | 95 | |
| 20260905160341 | 62 | 311 | 0.0 | 0.0 | 0.00 | 0.00 | 0.00 | 95 | |
| 20260905155828 | 61 | 311 | 0.0 | 0.0 | 0.00 | 0.00 | 0.00 | 95 | |
| 20260905155310 | 59 | 311 | 0.0 | 0.0 | 0.00 | 0.00 | 0.00 | 95 | |
| 20260905154813 | 59 | 311 | 0.0 | 0.0 | 0.00 | 0.00 | 0.00 | 95 | |
| 20260905153707 | 57 | 311 | 0.0 | 0.0 | 0.00 | 0.00 | 0.00 | 94 | |
| 20260905153207 | 57 | 311 | 0.0 | 0.0 | 0.00 | 0.00 | 0.00 | 94 | |
| 20260905152657 | 56 | 311 | 0.0 | 0.0 | 0.00 | 0.00 | 0.00 | 94 | |
| 20260905152145 | 56 | 311 | 0.0 | 0.0 | 0.00 | 0.00 | 0.00 | 93 | |
| 20260905151626 | 56 | 311 | 0.0 | 0.0 | 0.00 | 0.00 | 0.00 | 93 | |
| 20260905151119 | 55 | 311 | 0.0 | 0.0 | 0.00 | 0.00 | 0.00 | 93 | |
| 20260905150615 | 55 | 311 | 0.0 | 0.0 | 0.00 | 0.00 | 0.00 | 93 | |
| 20260905150115 | 55 | 311 | 0.0 | 0.0 | 0.00 | 0.00 | 0.00 | 93 | |
| 20260905145608 | 55 | 311 | 0.0 | 0.0 | 0.00 | 0.00 | 0.00 | 93 | |
| 20260905145103 | 54 | 311 | 0.0 | 0.0 | 0.00 | 0.00 | 0.00 | 92 | |
| 20260905144552 | 54 | 311 | 0.0 | 0.0 | 0.00 | 0.00 | 0.00 | 92 | |
| 20260905144036 | 54 | 311 | 0.0 | 0.0 | 0.00 | 0.00 | 0.00 | 91 | |
| 20260905143544 | 54 | 311 | 0.0 | 0.0 | 0.00 | 0.00 | 0.00 | 92 | |
| 20260905143041 | 54 | 311 | 0.0 | 0.0 | 0.00 | 0.00 | 0.00 | 91 | |
| 20260905142537 | 54 | 311 | 0.0 | 0.0 | 0.00 | 0.00 | 0.00 | 91 | |
| 20260905141427 | 54 | 311 | 0.0 | 0.0 | 0.00 | 0.00 | 0.00 | 91 | |
| 20260905140908 | 54 | 311 | 0.0 | 0.0 | 0.00 | 0.00 | 0.00 | 91 | |
| 20260905140406 | 54 | 311 | 0.0 | 0.0 | 0.00 | 0.00 | 0.00 | 91 | |
| 20260905135854 | 54 | 311 | 0.0 | 0.0 | 0.00 | 0.00 | 0.00 | 91 | |
| 20260905135347 | 55 | 311 | 0.0 | 0.0 | 0.00 | 0.00 | 0.00 | 91 | |
| 20260905134853 | 55 | 311 | 0.0 | 0.0 | 0.00 | 0.00 | 0.00 | 91 | |
| 20260905133721 | 55 | 311 | 0.0 | 0.0 | 0.00 | 0.00 | 0.00 | 91 | |
| 20260905133232 | 55 | 311 | 0.0 | 0.0 | 0.00 | 0.00 | 0.00 | 91 | |
| 20260905132737 | 55 | 311 | 0.0 | 0.0 | 0.00 | 0.00 | 0.00 | 91 | |
| 20260905131621 | 55 | 311 | 0.0 | 0.0 | 0.00 | 0.00 | 0.00 | 91 | |
| 20260905131117 | 55 | 311 | 0.0 | 0.0 | 0.00 | 0.00 | 0.00 | 91 | |
| 20260905130605 | 55 | 311 | 0.0 | 0.0 | 0.00 | 0.00 | 0.00 | 91 | |
| 20260905130052 | 55 | 311 | 0.0 | 0.0 | 0.00 | 0.00 | 0.00 | 91 | |
| 20260905125555 | 55 | 311 | 0.0 | 1.0 | 0.00 | 0.00 | 0.00 | 91 | |
| 20260905125045 | 55 | 311 | 0.0 | 0.0 | 0.00 | 0.00 | 0.00 | 91 | |
| 20260905124551 | 55 | 311 | 0.0 | 0.0 | 0.00 | 0.00 | 0.00 | 91 | |
| 20260905124051 | 55 | 311 | 0.0 | 0.0 | 0.00 | 0.00 | 0.00 | 91 | |
| 20260905123555 | 55 | 311 | 0.0 | 0.0 | 0.00 | 0.00 | 0.00 | 91 | |
| 20260905123058 | 55 | 311 | 0.0 | 0.0 | 0.00 | 0.00 | 0.00 | 91 | |
| 20260905122547 | 56 | 311 | 0.0 | 0.0 | 0.00 | 0.00 | 0.00 | 90 | |
| 20260905122037 | 56 | 311 | 0.0 | 0.0 | 0.00 | 0.00 | 0.00 | 90 | |
| 20260905121545 | 56 | 311 | 0.0 | 0.0 | 0.00 | 0.00 | 0.00 | 90 | |
| 20260905120412 | 56 | 311 | 0.0 | 1.0 | 0.00 | 0.00 | 0.00 | 90 | |
| 20260905115915 | 56 | 311 | 0.0 | 0.0 | 0.00 | 0.00 | 0.00 | 90 | |
| 20260905115425 | 56 | 311 | 0.0 | 0.0 | 0.00 | 0.00 | 0.00 | 90 | |
| 20260905114914 | 56 | 311 | 0.0 | 0.0 | 0.00 | 0.00 | 0.00 | 90 | |
| 20260905114414 | 56 | 311 | 0.0 | 0.0 | 0.00 | 0.00 | 0.00 | 90 | |
| 20260905113918 | 56 | 311 | 0.0 | 0.0 | 0.00 | 0.00 | 0.00 | 90 | |
| 20260905113424 | 56 | 311 | 0.0 | 0.0 | 0.00 | 0.00 | 0.00 | 90 | |
| 20260905112909 | 56 | 311 | 0.0 | 0.0 | 0.00 | 0.00 | 0.00 | 90 | |
| 20260905112400 | 56 | 311 | 0.0 | 0.0 | 0.00 | 0.00 | 0.00 | 90 | |
| 20260905111234 | 56 | 311 | 0.0 | 0.0 | 0.00 | 0.00 | 0.00 | 90 | |
| 20260905110714 | 56 | 311 | 0.0 | 0.0 | 0.00 | 0.00 | 0.00 | 90 | |
| 20260905110208 | 56 | 311 | 0.0 | 0.0 | 0.00 | 0.00 | 0.00 | 89 | |
| 20260905105654 | 57 | 311 | 0.0 | 2.0 | 0.00 | 0.00 | 0.00 | 89 | |
| 20260905105150 | 57 | 311 | 0.0 | 0.0 | 0.00 | 0.00 | 0.00 | 88 | |
| 20260905104651 | 57 | 311 | 0.0 | 0.0 | 0.00 | 0.00 | 0.00 | 89 | |
| 20260905104133 | 57 | 311 | 0.0 | 0.0 | 0.00 | 0.00 | 0.00 | 89 | |
| 20260905103613 | 57 | 311 | 0.0 | 0.0 | 0.00 | 0.00 | 0.00 | 89 | |
| 20260905103104 | 57 | 311 | 0.0 | 0.0 | 0.00 | 0.00 | 0.00 | 89 | |
| 20260905102603 | 57 | 311 | 0.0 | 0.0 | 0.00 | 0.00 | 0.00 | 89 | |
| 20260905102106 | 57 | 311 | 0.0 | 0.0 | 0.00 | 0.00 | 0.00 | 89 | |
| 20260905100333 | 58 | 311 | 0.0 | 0.0 | 0.00 | 0.00 | 0.00 | 89 | |
| 20260905095834 | 58 | 311 | 0.0 | 0.0 | 0.00 | 0.00 | 0.00 | 89 | |
| 20260905095339 | 58 | 311 | 0.0 | 0.0 | 0.00 | 0.00 | 0.00 | 88 | |
| 20260905094824 | 58 | 311 | 0.0 | 0.0 | 0.00 | 0.00 | 0.00 | 88 | |
| 20260905094331 | 58 | 311 | 0.0 | 0.0 | 0.00 | 0.00 | 0.00 | 88 | |
| 20260905092601 | 58 | 311 | 0.0 | 0.0 | 0.00 | 0.00 | 0.00 | 88 | |
| 20260905092043 | 58 | 311 | 0.0 | 0.0 | 0.00 | 0.00 | 0.00 | 88 | |
| 20260905091542 | 58 | 311 | 0.0 | 0.0 | 0.00 | 0.00 | 0.00 | 87 | |
| 20260905091034 | 59 | 311 | 0.0 | 0.0 | 0.00 | 0.00 | 0.00 | 88 | |
| 20260905090515 | 59 | 311 | 0.0 | 0.0 | 0.00 | 0.00 | 0.00 | 88 | |
| 20260905085411 | 59 | 311 | 0.0 | 0.0 | 0.00 | 0.00 | 0.00 | 87 | |
| 20260905084901 | 59 | 311 | 0.0 | 0.0 | 0.00 | 0.00 | 0.00 | 87 | |
| 20260905084351 | 59 | 311 | 0.0 | 0.0 | 0.00 | 0.00 | 0.00 | 87 | |
| 20260905081948 | 60 | 311 | 0.0 | 0.0 | 0.00 | 0.00 | 0.00 | 87 | |
| 20260905081447 | 60 | 311 | 0.0 | 0.0 | 0.00 | 0.00 | 0.00 | 87 | |
| 20260905080952 | 60 | 311 | 0.0 | 0.0 | 0.00 | 0.00 | 0.00 | 87 | |
| 20260905080445 | 60 | 311 | 0.0 | 0.0 | 0.00 | 0.00 | 0.00 | 87 | |
| 20260905075927 | 60 | 311 | 0.0 | 0.0 | 0.00 | 0.00 | 0.00 | 87 | |
| 20260905075414 | 60 | 311 | 0.0 | 0.0 | 0.00 | 0.00 | 0.00 | 87 | |
| 20260905074916 | 60 | 311 | 0.0 | 0.0 | 0.00 | 0.00 | 0.00 | 87 | |
| 20260905074357 | 61 | 311 | 0.0 | 0.0 | 0.00 | 0.00 | 0.00 | 87 | |
| 20260905073906 | 61 | 311 | 0.0 | 1.0 | 0.00 | 0.00 | 0.00 | 87 | |
| 20260905073348 | 61 | 311 | 0.0 | 0.0 | 0.00 | 0.00 | 0.00 | 87 | |
| 20260905072852 | 61 | 311 | 0.0 | 0.0 | 0.00 | 0.00 | 0.00 | 87 | |
| 20260905072350 | 61 | 311 | 0.0 | 0.0 | 0.00 | 0.00 | 0.00 | 87 | |
| 20260905071844 | 61 | 311 | 0.0 | 0.0 | 0.00 | 0.00 | 0.00 | 87 | |
| 20260905070723 | 61 | 311 | 0.0 | 0.0 | 0.00 | 0.00 | 0.00 | 86 | |
| 20260905065617 | 61 | 311 | 0.0 | 0.0 | 0.00 | 0.00 | 0.00 | 86 | |
| 20260905065119 | 61 | 311 | 0.0 | 0.0 | 0.00 | 0.00 | 0.00 | 85 | |
| 20260905064609 | 61 | 311 | 0.0 | 0.0 | 0.00 | 0.00 | 0.00 | 84 | |
| 20260905064111 | 62 | 311 | 0.0 | 0.0 | 0.00 | 0.00 | 0.00 | 84 | |
| 20260905063603 | 62 | 311 | 0.0 | 0.0 | 0.00 | 0.00 | 0.00 | 84 | |
| 20260905063109 | 62 | 311 | 0.0 | 0.0 | 0.00 | 0.00 | 0.00 | 84 | |
| 20260905061933 | 62 | 311 | 0.0 | 0.0 | 0.00 | 0.00 | 0.00 | 84 | |
| 20260905061430 | 62 | 311 | 0.0 | 0.0 | 0.00 | 0.00 | 0.00 | 84 | |
| 20260905060916 | 63 | 311 | 0.0 | 0.0 | 0.00 | 0.00 | 0.00 | 84 | |
| 20260905055744 | 63 | 311 | 0.0 | 0.0 | 0.00 | 0.00 | 0.00 | 83 | |
| 20260905054625 | 63 | 311 | 0.0 | 0.0 | 0.00 | 0.00 | 0.00 | 83 | |
| 20260905053454 | 64 | 311 | 0.0 | 0.0 | 0.00 | 0.00 | 0.00 | 83 | |
| 20260905053000 | 64 | 311 | 0.0 | 0.0 | 0.00 | 0.00 | 0.00 | 83 | |
| 20260905052453 | 64 | 311 | 0.0 | 0.0 | 0.00 | 0.00 | 0.00 | 83 | |
| 20260905051954 | 64 | 311 | 0.0 | 0.0 | 0.00 | 0.00 | 0.00 | 83 | |
| 20260905051450 | 64 | 311 | 0.0 | 0.0 | 0.00 | 0.00 | 0.00 | 82 | |
| 20260905050956 | 64 | 311 | 0.0 | 0.0 | 0.00 | 0.00 | 0.00 | 82 | |
| 20260905045846 | 65 | 311 | 0.0 | 0.0 | 0.00 | 0.00 | 0.00 | 81 | |
| 20260905045330 | 65 | 311 | 0.0 | 0.0 | 0.00 | 0.00 | 0.00 | 81 | |
| 20260905044814 | 65 | 311 | 0.0 | 0.0 | 0.00 | 0.00 | 0.00 | 80 | |
| 20260905043017 | 66 | 311 | 0.0 | 0.0 | 0.00 | 0.00 | 0.00 | 79 | |
| 20260905042517 | 66 | 311 | 0.0 | 0.0 | 0.00 | 0.00 | 0.00 | 79 | |
| 20260905042019 | 66 | 311 | 0.0 | 0.0 | 0.00 | 0.00 | 0.00 | 79 | |
| 20260905040856 | 67 | 311 | 0.0 | 0.0 | 0.00 | 0.00 | 0.00 | 78 | |
| 20260905040336 | 67 | 311 | 0.0 | 0.0 | 0.00 | 0.00 | 0.00 | 77 | |
| 20260905035831 | 67 | 311 | 0.0 | 0.0 | 0.00 | 0.00 | 0.00 | 77 | |
| 20260905035326 | 68 | 311 | 0.0 | 0.0 | 0.00 | 0.00 | 0.00 | 77 | |
| 20260905034813 | 68 | 311 | 0.0 | 0.0 | 0.00 | 0.00 | 0.00 | 76 | |
| 20260905034314 | 68 | 311 | 0.0 | 0.0 | 0.00 | 0.00 | 0.00 | 76 | |
| 20260905033813 | 69 | 311 | 0.0 | 0.0 | 0.00 | 0.00 | 0.00 | 76 | |
| 20260905033253 | 69 | 311 | 0.0 | 0.0 | 0.00 | 0.00 | 0.00 | 76 | |
| 20260905032757 | 69 | 311 | 0.0 | 0.0 | 0.00 | 0.00 | 0.00 | 76 | |
| 20260905032242 | 69 | 311 | 0.0 | 0.0 | 0.00 | 0.00 | 0.00 | 75 | |
| 20260905031724 | 70 | 311 | 0.0 | 0.0 | 0.00 | 0.00 | 0.00 | 75 | |
| 20260905030619 | 70 | 311 | 0.0 | 0.0 | 0.00 | 0.00 | 0.00 | 74 | |
| 20260905030113 | 71 | 311 | 0.0 | 0.0 | 0.00 | 0.00 | 0.00 | 75 | |
| 20260905025607 | 71 | 311 | 0.0 | 0.0 | 0.00 | 0.00 | 0.00 | 74 | |
| 20260905025116 | 71 | 311 | 0.0 | 0.0 | 0.00 | 0.00 | 0.00 | 74 | |
| 20260905023327 | 72 | 311 | 0.0 | 2.0 | 0.00 | 0.00 | 0.00 | 73 | |
| 20260905022826 | 72 | 311 | 0.0 | 1.0 | 0.00 | 0.00 | 0.00 | 73 | |
| 20260905022332 | 73 | 311 | 0.0 | 3.0 | 0.00 | 0.00 | 0.00 | 72 | |
| 20260905021832 | 73 | 311 | 0.0 | 3.0 | 0.00 | 0.00 | 0.00 | 72 | |
| 20260905021332 | 74 | 311 | 0.0 | 3.0 | 0.00 | 0.00 | 0.00 | 71 | |
| 20260905020819 | 74 | 311 | 0.0 | 3.0 | 0.00 | 0.00 | 0.00 | 70 | |
| 20260905020319 | 75 | 311 | 0.0 | 0.0 | 0.00 | 0.00 | 0.00 | 69 | |
| 20260905015810 | 75 | 311 | 0.0 | 5.0 | 0.00 | 0.00 | 0.00 | 68 | |
| 20260905015313 | 75 | 311 | 0.0 | 5.0 | 0.00 | 0.00 | 0.00 | 68 | |
| 20260905014815 | 76 | 311 | 0.0 | 5.0 | 0.00 | 0.00 | 0.00 | 66 | |
| 20260905014258 | 76 | 311 | 0.0 | 3.0 | 0.00 | 0.00 | 0.00 | 66 | |
| 20260905013742 | 77 | 311 | 0.0 | 3.0 | 0.00 | 0.00 | 0.00 | 64 | |
| 20260905012618 | 78 | 311 | 1.0 | 3.0 | 0.00 | 0.00 | 0.00 | 62 | |
| 20260905011455 | 79 | 311 | 0.0 | 3.0 | 0.00 | 0.00 | 0.00 | 58 |